HS9UAC-10 Weather Reports


Display with metric or nautical units.
time (UTC)temp
F
wind
direction
speed
MPH
gust
MPH
rain 1hr
in
rain 24hr
in
rain mn
in
humidity
%
barometer
mb
20260502232620 88 0 0.0 0.0 0.00 0.00 0.00 89 1007.0
20260502231056 88 0 0.0 0.0 0.00 0.00 0.00 89 1007.0
20260502225531 88 0 0.0 0.0 0.00 0.00 0.00 89 1007.0
20260502224007 89 0 0.0 0.0 0.00 0.00 0.00 88 1007.0
20260502222442 89 0 0.0 0.0 0.00 0.00 0.00 88 1007.0
20260502220918 89 0 0.0 0.0 0.00 0.00 0.00 88 1006.0
20260502215353 90 0 0.0 0.0 0.00 0.00 0.00 86 1006.0
20260502213828 90 0 0.0 0.0 0.00 0.00 0.00 84 1006.0
20260502212305 90 0 0.0 0.0 0.00 0.00 0.00 84 1006.0
20260502210739 90 0 0.0 0.0 0.00 0.00 0.00 83 1006.0
20260502205214 91 0 0.0 0.0 0.00 0.00 0.00 81 1006.0
20260502203650 91 0 0.0 0.0 0.00 0.00 0.00 79 1006.0
20260502202125 91 0 0.0 0.0 0.00 0.00 0.00 78 1006.0
20260502200601 92 0 0.0 0.0 0.00 0.00 0.00 77 1006.0
20260502195036 92 0 0.0 0.0 0.00 0.00 0.00 76 1006.0
20260502193512 92 0 0.0 0.0 0.00 0.00 0.00 74 1006.0
20260502191947 93 0 0.0 0.0 0.00 0.00 0.00 72 1006.0
20260502190422 92 0 0.0 0.0 0.00 0.00 0.00 72 1007.0
20260502184830 92 0 0.0 0.0 0.00 0.00 0.00 71 1007.0
20260502183306 93 0 0.0 0.0 0.00 0.00 0.00 69 1007.0
20260502181741 93 0 0.0 0.0 0.00 0.00 0.00 69 1007.0
20260502180217 93 0 0.0 0.0 0.00 0.00 0.00 71 1007.0
20260502162949 96 0 0.0 0.0 0.00 0.00 0.00 63 1008.0
20260502161425 96 0 0.0 0.0 0.00 0.00 0.00 61 1008.0
20260502151246 97 0 0.0 0.0 0.00 0.00 0.00 62 1008.0
20260502122315 99 0 0.0 0.0 0.00 0.00 0.00 63 1006.0
20260502120750 97 0 0.0 0.0 0.00 0.00 0.00 66 1006.0
20260502115226 96 0 0.0 0.0 0.00 0.00 0.00 68 1006.0
20260502113701 96 0 0.0 0.0 0.00 0.00 0.00 70 1005.0
20260502112137 98 0 0.0 0.0 0.00 0.00 0.00 65 1005.0
20260502110612 98 0 0.0 0.0 0.00 0.00 0.00 64 1005.0
20260502105047 99 0 0.0 0.0 0.00 0.00 0.00 62 1005.0
20260502103523 99 0 0.0 0.0 0.00 0.00 0.00 62 1005.0
20260502101958 97 0 0.0 0.0 0.00 0.00 0.00 65 1005.0
20260502100434 102 0 0.0 0.0 0.00 0.00 0.00 53 1005.0
20260502090255 113 0 0.0 0.0 0.00 0.00 0.00 37 1004.0
20260502071503 100 0 0.0 0.0 0.00 0.00 0.00 55 1006.0
20260502065939 100 0 0.0 0.0 0.00 0.00 0.00 54 1006.0
20260502064414 102 0 0.0 0.0 0.00 0.00 0.00 51 1006.0
20260502062849 103 0 0.0 0.0 0.00 0.00 0.00 47 1006.0
20260502061325 101 0 0.0 0.0 0.00 0.00 0.00 54 1007.0
20260502055800 101 0 0.0 0.0 0.00 0.00 0.00 55 1007.0
20260502054236 101 0 0.0 0.0 0.00 0.00 0.00 54 1007.0
20260502052711 101 0 0.0 0.0 0.00 0.00 0.00 51 1007.0
20260502051146 102 0 0.0 0.0 0.00 0.00 0.00 50 1007.0
20260502045621 100 0 0.0 0.0 0.00 0.00 0.00 53 1008.0
20260502044057 101 0 0.0 0.0 0.00 0.00 0.00 51 1008.0
20260502042532 100 0 0.0 0.0 0.00 0.00 0.00 53 1008.0
20260502041008 100 0 0.0 0.0 0.00 0.00 0.00 54 1009.0
20260502035443 99 0 0.0 0.0 0.00 0.00 0.00 59 1009.0
20260502033919 100 0 0.0 0.0 0.00 0.00 0.00 57 1009.0
20260502032354 98 0 0.0 0.0 0.00 0.00 0.00 63 1009.0
20260502030830 99 0 0.0 0.0 0.00 0.00 0.00 60 1009.0
20260502025306 99 0 0.0 0.0 0.00 0.00 0.00 60 1009.0
20260502023741 98 0 0.0 0.0 0.00 0.00 0.00 63 1009.0
20260502022216 97 0 0.0 0.0 0.00 0.00 0.00 62 1009.0
20260502020651 97 0 0.0 0.0 0.00 0.00 0.00 67 1009.0
20260502015127 96 0 0.0 0.0 0.00 0.00 0.00 68 1009.0
20260502013602 95 0 0.0 0.0 0.00 0.00 0.00 73 1009.0
20260502012038 95 0 0.0 0.0 0.00 0.00 0.00 75 1008.0
20260502010513 94 0 0.0 0.0 0.00 0.00 0.00 79 1008.0
20260502004949 93 0 0.0 0.0 0.00 0.00 0.00 78 1008.0
20260502003424 93 0 0.0 0.0 0.00 0.00 0.00 79 1008.0
20260502001859 93 0 0.0 0.0 0.00 0.00 0.00 83 1008.0
20260502000335 92 0 0.0 0.0 0.00 0.00 0.00 84 1007.0
20260501234810 91 0 0.0 0.0 0.00 0.00 0.00 88 1007.0